Regional Weather Roundup
Issued by NWS

Home | Current Version | Previous Version | Graphics & Text | Print | Product List | Glossary On
Versions: 1 2 3 4 5 6 7 8 9 10 11 12 13 14 15 16 17 18 19 20 21 22 23 24 25 26 27 28 29 30 31 32 33 34 35 36 37 38 39 40 41 42 43 44 45 46 47 48 49 50
000
ASUS43 KLMK 180110
RWRKY
KENTUCKY REGIONAL WEATHER ROUNDUP
NATIONAL WEATHER SERVICE LOUISVILLE KY
900 PM EDT WED SEP 17 2014

NOTE "FAIR" INDICATES FEW OR NO CLOUDS BELOW 12,000 FEET
WITH NO SIGNIFICANT WEATHER AND/OR OBSTRUCTIONS TO VISIBILITY.

KYZ001>023-026-027-061>063-070>075-180200-
WESTERN AND SOUTH CENTRAL KENTUCKY

CITY           SKY/WX    TMP DP  RH WIND       PRES   REMARKS
PADUCAH        CLOUDY    69  59  70 CALM      29.95S
HENDERSON      CLOUDY    64  55  72 SE3       29.96S
OWENSBORO      PTCLDY    67  55  65 CALM      29.97R
HOPKINSVILLE   CLOUDY    66  58  77 S5        29.97S
BOWLING GREEN  PTCLDY    66  53  63 SW3       29.97R
GLASGOW        PTCLDY    61  56  83 CALM      29.97R
$$

KYZ024-025-028>034-038-045-046-053-180200-
NORTH CENTRAL KENTUCKY

CITY           SKY/WX    TMP DP  RH WIND       PRES   REMARKS
LOUISVILLE/SDF PTCLDY    64  53  67 N5        29.97R
LOUISVILLE/LOU CLEAR     64  52  64 NE3       29.97S
FORT KNOX      MOCLDY    58  55  88 NW2       29.97R
$$

KYZ035>037-039>044-047>052-055>060-089>105-180200-
NORTHEAST KENTUCKY

CITY           SKY/WX    TMP DP  RH WIND       PRES   REMARKS
LEXINGTON      CLEAR     61  52  72 NE5       29.98S
COVINGTON      PTCLDY    60  49  66 N3        29.98S
FRANKFORT      CLEAR     56  53  90 CALM      29.97R
$$

KYZ054-064>069-076>088-106>120-180200-
SOUTHEAST KENTUCKY

CITY           SKY/WX    TMP DP  RH WIND       PRES   REMARKS
JACKSON        CLEAR     63  53  70 CALM      30.00R
LONDON         CLEAR     63  56  78 CALM      30.00S
SOMERSET       NOT AVBL
MIDDLESBORO    CLEAR     61  56  85 W3        30.00R
MONTICELLO     CLEAR     59  56  89 CALM      29.99F
$$




USA.gov is the U.S. government's official web portal to all federal, state and local government web resources and services.